FW6744 Weather Reports


Display with metric or nautical units.
time (UTC)temp
F
wind
direction
speed
MPH
gust
MPH
rain 1hr
in
rain 24hr
in
rain mn
in
humidity
%
barometer
mb
20260902163522 93 61 0.0 2.0 0.00 0.00 0.00 61 1013.7
20260902163017 93 187 0.0 2.0 0.00 0.00 0.00 61 1013.7
20260902162512 92 204 0.0 2.0 0.00 0.00 0.00 63 1013.7
20260902162005 92 126 0.0 1.0 0.00 0.00 0.00 65 1013.7
20260902161725 91 213 0.0 1.0 0.00 0.00 0.00 66 1013.7
20260902160953 91 231 1.0 3.0 0.00 0.00 0.00 65 1013.8
20260902160447 90 4 1.0 5.0 0.00 0.00 0.00 66 1013.8
20260902160205 90 32 0.0 5.0 0.00 0.00 0.00 66 1013.9
20260902155435 89 32 0.0 2.0 0.00 0.00 0.00 66 1014.0
20260902155420 89 28 0.0 2.0 0.00 0.00 0.00 69 1014.0
20260902154422 89 25 0.0 2.0 0.00 0.00 0.00 68 1014.0
20260902153917 89 234 0.0 1.0 0.00 0.00 0.00 69 1013.9
20260902153411 88 222 0.0 1.0 0.00 0.00 0.00 69 1013.9
20260902152905 87 219 0.0 1.0 0.00 0.00 0.00 70 1013.9
20260902152400 87 124 0.0 1.0 0.00 0.00 0.00 70 1013.9
20260902151853 87 124 0.0 1.0 0.00 0.00 0.00 71 1014.0
20260902151353 87 129 0.0 2.0 0.00 0.00 0.00 72 1014.0
20260902151119 87 248 0.0 2.0 0.00 0.00 0.00 71 1014.1
20260902150353 86 39 0.0 3.0 0.00 0.00 0.00 72 1014.1
20260902145851 86 39 0.0 3.0 0.00 0.00 0.00 72 1014.1
20260902145355 85 30 0.0 2.0 0.00 0.00 0.00 73 1014.1
20260902144851 85 38 0.0 1.0 0.00 0.00 0.00 75 1014.2
20260902144349 85 38 0.0 1.0 0.00 0.00 0.00 76 1014.3
20260902144104 85 38 0.0 1.0 0.00 0.00 0.00 76 1014.2
20260902143609 84 28 0.0 1.0 0.00 0.00 0.00 77 1014.2
20260902142843 84 27 0.0 1.0 0.00 0.00 0.00 79 1014.1
20260902142342 84 27 0.0 0.0 0.00 0.00 0.00 80 1014.1
20260902141843 84 27 0.0 0.0 0.00 0.00 0.00 78 1014.1
20260902141341 84 27 0.0 2.0 0.00 0.00 0.00 79 1014.0
20260902140843 83 27 1.0 2.0 0.00 0.00 0.00 79 1014.0
20260902140339 83 27 1.0 2.0 0.00 0.00 0.00 79 1014.0
20260902135837 82 216 0.0 1.0 0.00 0.00 0.00 82 1013.9
20260902135338 81 221 0.0 0.0 0.00 0.00 0.00 83 1013.8
20260902134839 81 70 0.0 0.0 0.00 0.00 0.00 85 1013.8
20260902134338 81 70 0.0 0.0 0.00 0.00 0.00 84 1013.8
20260902133837 80 70 0.0 0.0 0.00 0.00 0.00 85 1013.7
20260902133338 80 70 0.0 0.0 0.00 0.00 0.00 85 1013.8
20260902132837 79 75 0.0 0.0 0.00 0.00 0.00 86 1013.8
20260902132339 79 77 0.0 0.0 0.00 0.00 0.00 87 1013.7
20260902131838 79 77 0.0 0.0 0.00 0.00 0.00 87 1013.7
20260902131602 79 77 0.0 0.0 0.00 0.00 0.00 87 1013.8
20260902131328 78 77 0.0 0.0 0.00 0.00 0.00 88 1013.7
20260902130339 78 77 0.0 0.0 0.00 0.00 0.00 87 1013.8
20260902125839 78 77 0.0 0.0 0.00 0.00 0.00 88 1013.8
20260902125339 78 77 0.0 0.0 0.00 0.00 0.00 88 1013.8
20260902124837 78 77 0.0 0.0 0.00 0.00 0.00 88 1013.7
20260902124338 78 77 0.0 0.0 0.00 0.00 0.00 87 1013.6
20260902123839 78 77 0.0 0.0 0.00 0.00 0.00 87 1013.6
20260902123331 78 77 0.0 0.0 0.00 0.00 0.00 87 1013.6
20260902122826 78 77 0.0 0.0 0.00 0.00 0.00 87 1013.5
20260902122320 78 77 0.0 1.0 0.00 0.00 0.00 88 1013.6
20260902121814 78 77 0.0 1.0 0.00 0.00 0.00 88 1013.6
20260902121536 77 80 0.0 0.0 0.00 0.00 0.00 90 1013.5
20260902120812 77 80 0.0 0.0 0.00 0.00 0.00 90 1013.6
20260902120310 77 80 0.0 0.0 0.00 0.00 0.00 91 1013.6
20260902115807 77 80 0.0 0.0 0.00 0.00 0.00 91 1013.6
20260902115309 77 80 0.0 0.0 0.00 0.00 0.00 91 1013.5
20260902114809 76 80 0.0 0.0 0.00 0.00 0.00 90 1013.5
20260902114532 76 80 0.0 0.0 0.00 0.00 0.00 90 1013.4
20260902113807 76 80 0.0 0.0 0.00 0.00 0.00 90 1013.5
20260902113305 76 80 0.0 0.0 0.00 0.00 0.00 90 1013.5
20260902112802 76 80 0.0 0.0 0.00 0.00 0.00 90 1013.5
20260902112305 76 80 0.0 0.0 0.00 0.00 0.00 90 1013.6
20260902111802 76 80 0.0 0.0 0.00 0.00 0.00 90 1013.5
20260902111301 76 80 0.0 0.0 0.00 0.00 0.00 90 1013.5
20260902110758 76 80 0.0 0.0 0.00 0.00 0.00 90 1013.5
20260902110255 76 80 0.0 0.0 0.00 0.00 0.00 89 1013.5
20260902105753 76 80 0.0 0.0 0.00 0.00 0.00 89 1013.5
20260902105255 76 80 0.0 0.0 0.00 0.00 0.00 89 1013.4
20260902104753 76 80 0.0 0.0 0.00 0.00 0.00 89 1013.3
20260902104251 76 80 0.0 0.0 0.00 0.00 0.00 89 1013.3
20260902104016 76 80 0.0 0.0 0.00 0.00 0.00 89 1013.3
20260902103503 77 80 0.0 0.0 0.00 0.00 0.00 89 1013.2
20260902103010 77 80 0.0 0.0 0.00 0.00 0.00 89 1013.2
20260902102233 77 80 0.0 0.0 0.00 0.00 0.00 89 1013.2
20260902101728 77 80 0.0 1.0 0.00 0.00 0.00 89 1013.1
20260902101710 77 80 0.0 1.0 0.00 0.00 0.00 89 1013.1
20260902100716 77 80 0.0 0.0 0.00 0.00 0.00 89 1013.0
20260902100210 77 80 0.0 0.0 0.00 0.00 0.00 89 1012.8
20260902095704 77 80 0.0 0.0 0.00 0.00 0.00 89 1012.9
20260902095157 77 79 0.0 0.0 0.00 0.00 0.00 89 1012.8
20260902094652 77 80 0.0 0.0 0.00 0.00 0.00 89 1012.8
20260902094146 77 80 0.0 0.0 0.00 0.00 0.00 89 1012.8
20260902093640 77 80 0.0 0.0 0.00 0.00 0.00 89 1012.8
20260902093134 77 80 0.0 0.0 0.00 0.00 0.00 89 1012.9
20260902092629 77 80 0.0 0.0 0.00 0.00 0.00 89 1012.8
20260902092123 77 80 0.0 0.0 0.00 0.00 0.00 89 1012.8
20260902091616 77 80 0.0 0.0 0.00 0.00 0.00 89 1012.8
20260902091110 77 80 0.0 0.0 0.00 0.00 0.00 89 1012.8
20260902090604 77 80 0.0 0.0 0.00 0.00 0.00 89 1012.7
20260902090058 77 80 0.0 0.0 0.00 0.00 0.00 89 1012.7
20260902085815 76 80 0.0 0.0 0.00 0.00 0.00 89 1012.7
20260902085046 76 80 0.0 0.0 0.00 0.00 0.00 89 1012.7
20260902084540 76 80 0.0 0.0 0.00 0.00 0.00 89 1012.8
20260902084033 76 80 0.0 0.0 0.00 0.00 0.00 90 1012.8
20260902083528 76 80 0.0 0.0 0.00 0.00 0.00 90 1012.8
20260902083240 76 80 0.0 1.0 0.00 0.00 0.00 90 1012.7
20260902082517 76 80 0.0 1.0 0.00 0.00 0.00 91 1012.6
20260902082010 76 80 0.0 0.0 0.00 0.00 0.00 91 1012.7
20260902081504 76 80 0.0 0.0 0.00 0.00 0.00 91 1012.6
20260902080958 76 80 0.0 0.0 0.00 0.00 0.00 91 1012.5
20260902080934 76 80 0.0 0.0 0.00 0.00 0.00 91 1012.5
20260902080211 76 80 0.0 0.0 0.00 0.00 0.00 91 1012.5
20260902075920 76 80 0.0 0.0 0.00 0.00 0.00 91 1012.6
20260902074934 76 80 0.0 0.0 0.00 0.00 0.00 91 1012.5
20260902074646 76 80 0.0 0.0 0.00 0.00 0.00 91 1012.5
20260902073922 76 80 0.0 0.0 0.00 0.00 0.00 91 1012.5
20260902073416 76 80 0.0 0.0 0.00 0.00 0.00 91 1012.5
20260902072910 76 80 0.0 0.0 0.00 0.00 0.00 91 1012.5
20260902072404 76 80 0.0 0.0 0.00 0.00 0.00 91 1012.6
20260902071858 76 80 0.0 0.0 0.00 0.00 0.00 91 1012.6
20260902071624 76 80 0.0 0.0 0.00 0.00 0.00 91 1012.6
20260902070846 76 80 0.0 0.0 0.00 0.00 0.00 91 1012.6
20260902070340 76 80 0.0 0.0 0.00 0.00 0.00 91 1012.6
20260902065834 76 80 0.0 0.0 0.00 0.00 0.00 91 1012.6
20260902065328 76 80 0.0 0.0 0.00 0.00 0.00 91 1012.6
20260902065042 76 80 0.0 0.0 0.00 0.00 0.00 91 1012.5
20260902064316 76 80 0.0 0.0 0.00 0.00 0.00 91 1012.5
20260902063810 76 80 0.0 0.0 0.00 0.00 0.00 91 1012.5
20260902063304 76 80 0.0 0.0 0.00 0.00 0.00 91 1012.4
20260902062801 76 80 0.0 0.0 0.00 0.00 0.00 90 1012.4
20260902062301 76 80 0.0 0.0 0.00 0.00 0.00 90 1012.4
20260902061800 76 80 0.0 0.0 0.00 0.00 0.00 90 1012.4
20260902061257 76 80 0.0 0.0 0.00 0.00 0.00 90 1012.4
20260902060757 76 80 0.0 0.0 0.00 0.00 0.00 90 1012.5
20260902060253 76 80 0.0 0.0 0.00 0.00 0.00 90 1012.5
20260902055752 76 80 0.0 0.0 0.00 0.00 0.00 90 1012.3
20260902055250 76 80 0.0 0.0 0.00 0.00 0.00 90 1012.3
20260902054749 76 80 0.0 0.0 0.00 0.00 0.00 90 1012.3
20260902054247 77 80 0.0 0.0 0.00 0.00 0.00 90 1012.3
20260902053742 77 80 0.0 0.0 0.00 0.00 0.00 89 1012.3
20260902053242 77 80 0.0 0.0 0.00 0.00 0.00 89 1012.3
20260902052740 77 80 0.0 0.0 0.00 0.00 0.00 89 1012.4
20260902052237 77 80 0.0 0.0 0.00 0.00 0.00 89 1012.4
20260902051941 77 80 0.0 0.0 0.00 0.00 0.00 89 1012.5
20260902051823 77 80 0.0 0.0 0.00 0.00 0.00 89 1012.5
20260902050732 77 80 0.0 0.0 0.00 0.00 0.00 88 1012.5
20260902050230 77 80 0.0 0.0 0.00 0.00 0.00 88 1012.5
20260902045726 78 80 0.0 0.0 0.00 0.00 0.00 88 1012.5
20260902045226 78 80 0.0 0.0 0.00 0.00 0.00 88 1012.5
20260902044726 78 80 0.0 0.0 0.00 0.00 0.00 87 1012.4
20260902044225 78 80 0.0 0.0 0.00 0.00 0.00 87 1012.3
20260902043724 78 80 0.0 0.0 0.00 0.00 0.00 87 1012.3
20260902043223 78 80 0.0 0.0 0.00 0.00 0.00 87 1012.2
20260902042723 78 80 0.0 0.0 0.00 0.00 0.00 87 1012.2
20260902042224 78 80 0.0 0.0 0.00 0.00 0.00 86 1012.2
20260902041723 78 80 0.0 0.0 0.00 0.00 0.00 86 1012.1
20260902041223 79 80 0.0 0.0 0.00 0.00 0.00 86 1012.1
20260902040723 79 80 0.0 0.0 0.00 0.00 0.00 86 1012.1
20260902040222 79 80 0.0 0.0 0.00 0.00 0.00 86 1012.1
20260902035724 79 80 0.0 0.0 0.00 0.00 0.00 86 1012.1
20260902035218 79 80 0.0 0.0 0.00 0.00 0.00 86 1012.0
20260902034713 79 80 0.0 0.0 0.00 0.00 0.00 86 1012.0
20260902034206 79 80 0.0 0.0 0.00 0.00 0.00 86 1011.8
20260902033925 79 80 0.0 0.0 0.00 0.00 0.00 86 1011.8
20260902033413 79 80 0.0 0.0 0.00 0.00 0.00 85 1011.7
20260902032915 79 80 0.0 0.0 0.00 0.00 0.00 85 1011.7
20260902032143 79 80 0.0 0.0 0.00 0.00 0.00 84 1011.6
20260902031636 79 80 0.0 0.0 0.00 0.00 0.00 85 1011.7
20260902031346 79 80 0.0 0.0 0.00 0.00 0.00 84 1011.7
20260902031115 79 80 0.0 0.0 0.00 0.00 0.00 84 1011.7
20260902030117 79 80 0.0 0.0 0.00 0.00 0.00 84 1011.7
20260902025612 79 80 0.0 0.0 0.00 0.00 0.00 83 1011.8
20260902025106 80 80 0.0 0.0 0.00 0.00 0.00 84 1011.7
20260902024559 80 80 0.0 0.0 0.00 0.00 0.00 84 1011.7
20260902024054 80 80 0.0 0.0 0.00 0.00 0.00 83 1011.8
20260902023554 80 80 0.0 0.0 0.00 0.00 0.00 82 1011.7
20260902023051 80 80 0.0 0.0 0.00 0.00 0.00 82 1011.7
20260902022550 80 80 0.0 0.0 0.00 0.00 0.00 82 1011.8
20260902022046 80 80 0.0 0.0 0.00 0.00 0.00 82 1011.7
20260902021548 80 80 0.0 0.0 0.00 0.00 0.00 82 1011.7
20260902021306 80 80 0.0 0.0 0.00 0.00 0.00 81 1011.7
20260902020541 81 80 0.0 0.0 0.00 0.00 0.00 81 1011.8
20260902020039 81 80 0.0 0.0 0.00 0.00 0.00 81 1011.7
20260902015540 81 80 0.0 0.0 0.00 0.00 0.00 80 1011.6
20260902015039 81 80 0.0 0.0 0.00 0.00 0.00 80 1011.6
20260902014538 81 80 0.0 0.0 0.00 0.00 0.00 80 1011.4
20260902014035 81 80 0.0 0.0 0.00 0.00 0.00 80 1011.4
20260902013535 82 80 0.0 0.0 0.00 0.00 0.00 80 1011.3
20260902013034 82 80 0.0 0.0 0.00 0.00 0.00 80 1011.1
20260902012533 82 80 0.0 0.0 0.00 0.00 0.00 80 1011.1
20260902012031 82 80 0.0 0.0 0.00 0.00 0.00 80 1011.1
20260902011531 82 80 0.0 0.0 0.00 0.00 0.00 80 1011.1
20260902011030 82 80 0.0 0.0 0.00 0.00 0.00 79 1011.0
20260902010530 82 80 0.0 0.0 0.00 0.00 0.00 79 1010.9
20260902010252 82 80 0.0 0.0 0.00 0.00 0.00 78 1010.9
20260902005527 83 80 0.0 0.0 0.00 0.00 0.00 77 1010.9
20260902005459 83 80 0.0 0.0 0.00 0.00 0.00 77 1010.9
20260902004515 83 80 0.0 0.0 0.00 0.00 0.00 77 1010.9
20260902004009 83 80 0.0 0.0 0.00 0.00 0.00 76 1010.8
20260902003503 83 80 0.0 0.0 0.00 0.00 0.00 76 1010.7
20260902002957 84 80 0.0 0.0 0.00 0.00 0.00 75 1010.6
20260902002451 84 80 0.0 0.0 0.00 0.00 0.00 75 1010.5
20260902001945 84 80 0.0 0.0 0.00 0.00 0.00 74 1010.5
20260902001935 84 80 0.0 0.0 0.00 0.00 0.00 74 1010.5
20260902000941 85 80 0.0 0.0 0.00 0.00 0.00 73 1010.5
20260902000440 85 80 0.0 0.0 0.00 0.00 0.00 72 1010.5
20260901235942 85 80 0.0 0.0 0.00 0.00 0.00 71 1010.6
20260901235439 86 80 0.0 0.0 0.00 0.00 0.00 70 1010.5
20260901234940 86 80 0.0 0.0 0.00 0.00 0.00 70 1010.5
20260901234440 86 80 0.0 0.0 0.00 0.00 0.00 70 1010.5
20260901233939 87 80 0.0 0.0 0.00 0.00 0.00 69 1010.5
20260901233438 87 80 0.0 0.0 0.00 0.00 0.00 69 1010.5
20260901232938 87 80 0.0 0.0 0.00 0.00 0.00 68 1010.6
20260901232925 88 80 0.0 0.0 0.00 0.00 0.00 67 1010.6
20260901232417 88 80 0.0 0.0 0.00 0.00 0.00 66 1010.6
20260901231434 89 80 0.0 0.0 0.00 0.00 0.00 66 1010.7
20260901230936 89 80 0.0 0.0 0.00 0.00 0.00 65 1010.8
20260901230436 90 80 0.0 0.0 0.00 0.00 0.00 64 1010.8
20260901225935 90 80 0.0 1.0 0.00 0.00 0.00 62 1010.8
20260901225436 90 80 0.0 1.0 0.00 0.00 0.00 64 1010.8
20260901224936 90 80 0.0 0.0 0.00 0.00 0.00 64 1010.8
20260901224435 91 80 0.0 0.0 0.00 0.00 0.00 62 1010.9
20260901223936 91 80 0.0 0.0 0.00 0.00 0.00 62 1010.9
20260901223705 91 80 0.0 0.0 0.00 0.00 0.00 60 1010.8
20260901222935 92 80 0.0 0.0 0.00 0.00 0.00 60 1010.9
20260901222435 92 80 0.0 1.0 0.00 0.00 0.00 59 1011.0
20260901221934 92 80 0.0 1.0 0.00 0.00 0.00 58 1011.0
20260901221435 92 80 0.0 0.0 0.00 0.00 0.00 59 1011.0
20260901220936 93 80 0.0 1.0 0.00 0.00 0.00 58 1011.0
20260901220436 93 80 0.0 1.0 0.00 0.00 0.00 58 1011.1
20260901215935 93 49 0.0 1.0 0.00 0.00 0.00 57 1011.1
20260901215432 93 49 0.0 1.0 0.00 0.00 0.00 57 1011.1
20260901214927 94 49 0.0 1.0 0.00 0.00 0.00 57 1011.1
20260901214640 94 49 0.0 1.0 0.00 0.00 0.00 56 1011.1
20260901213915 95 49 0.0 1.0 0.00 0.00 0.00 54 1011.1
20260901213630 96 49 0.0 1.0 0.00 0.00 0.00 54 1011.1
20260901212903 96 51 0.0 1.0 0.00 0.00 0.00 53 1011.1
20260901212631 97 51 0.0 1.0 0.00 0.00 0.00 50 1011.1
20260901211850 97 55 0.0 3.0 0.00 0.00 0.00 51 1011.1
20260901211343 97 163 0.0 3.0 0.00 0.00 0.00 48 1011.2
20260901210837 97 53 0.0 2.0 0.00 0.00 0.00 51 1011.2
20260901210332 96 179 0.0 2.0 0.00 0.00 0.00 50 1011.3
20260901210055 96 31 0.0 2.0 0.00 0.00 0.00 49 1011.4
20260901205333 97 32 0.0 2.0 0.00 0.00 0.00 50 1011.3
20260901204837 97 30 1.0 2.0 0.00 0.00 0.00 49 1011.4
20260901204815 98 34 1.0 3.0 0.00 0.00 0.00 48 1011.4
20260901203831 99 209 1.0 5.0 0.00 0.00 0.00 45 1011.4
20260901203331 98 194 1.0 5.0 0.00 0.00 0.00 47 1011.4
20260901203056 97 204 1.0 3.0 0.00 0.00 0.00 48 1011.5
20260901202328 97 25 0.0 2.0 0.00 0.00 0.00 51 1011.5
20260901201830 98 345 0.0 2.0 0.00 0.00 0.00 48 1011.5
20260901201329 99 25 1.0 3.0 0.00 0.00 0.00 49 1011.6
20260901200828 99 188 1.0 3.0 0.00 0.00 0.00 49 1011.7
20260901200326 100 39 0.0 2.0 0.00 0.00 0.00 48 1011.7
20260901195826 100 32 0.0 2.0 0.00 0.00 0.00 49 1011.7
20260901195327 100 157 0.0 2.0 0.00 0.00 0.00 46 1011.8
20260901194821 99 169 0.0 2.0 0.00 0.00 0.00 47 1011.7
20260901194315 99 207 1.0 2.0 0.00 0.00 0.00 45 1011.8
20260901193809 99 32 0.0 2.0 0.00 0.00 0.00 48 1011.8
20260901193303 99 202 0.0 2.0 0.00 0.00 0.00 48 1011.8
20260901193017 99 36 0.0 2.0 0.00 0.00 0.00 47 1011.8
20260901192253 99 181 0.0 2.0 0.00 0.00 0.00 46 1011.9
20260901191752 99 132 0.0 2.0 0.00 0.00 0.00 47 1012.0
20260901191253 98 26 1.0 4.0 0.00 0.00 0.00 48 1012.0
20260901190754 98 202 1.0 4.0 0.00 0.00 0.00 48 1012.0
20260901190252 98 180 0.0 1.0 0.00 0.00 0.00 49 1012.2
20260901185751 98 172 0.0 0.0 0.00 0.00 0.00 50 1012.2
20260901185512 98 159 0.0 3.0 0.00 0.00 0.00 50 1012.2
20260901184747 98 159 0.0 3.0 0.00 0.00 0.00 50 1012.3
20260901184246 97 224 1.0 4.0 0.00 0.00 0.00 50 1012.3
20260901183747 96 37 1.0 4.0 0.00 0.00 0.00 52 1012.4
20260901183246 96 49 1.0 3.0 0.00 0.00 0.00 50 1012.4
20260901182747 97 41 1.0 3.0 0.00 0.00 0.00 50 1012.5
20260901182508 97 47 0.0 2.0 0.00 0.00 0.00 50 1012.6
20260901181749 98 30 0.0 2.0 0.00 0.00 0.00 49 1012.6
20260901181505 98 147 0.0 3.0 0.00 0.00 0.00 49 1012.5
20260901180742 98 155 0.0 3.0 0.00 0.00 0.00 46 1012.4
20260901180241 98 165 0.0 1.0 0.00 0.00 0.00 46 1012.3
20260901175741 99 40 0.0 2.0 0.00 0.00 0.00 47 1012.4
20260901175235 98 179 0.0 4.0 0.00 0.00 0.00 46 1012.3
20260901174729 98 166 1.0 4.0 0.00 0.00 0.00 47 1012.3
20260901174442 98 287 1.0 3.0 0.00 0.00 0.00 45 1012.3
20260901173943 98 333 0.0 3.0 0.00 0.00 0.00 45 1012.4
20260901173211 98 196 0.0 3.0 0.00 0.00 0.00 52 1012.3
20260901173200 98 130 1.0 3.0 0.00 0.00 0.00 49 1012.4
20260901172159 97 208 1.0 3.0 0.00 0.00 0.00 50 1012.4
20260901171653 96 173 1.0 3.0 0.00 0.00 0.00 51 1012.5
20260901171147 96 155 1.0 3.0 0.00 0.00 0.00 54 1012.5
20260901171128 95 175 0.0 2.0 0.00 0.00 0.00 55 1012.5
20260901170135 95 44 1.0 2.0 0.00 0.00 0.00 55 1012.4
20260901165629 95 69 1.0 3.0 0.00 0.00 0.00 52 1012.5
20260901165346 95 179 0.0 3.0 0.00 0.00 0.00 54 1012.7
20260901164617 95 164 0.0 2.0 0.00 0.00 0.00 57 1012.7
20260901164335 94 205 1.0 2.0 0.00 0.00 0.00 56 1012.8